SAS44D EKCH-ESSA

Flight info

Callsign SAS44D
Flight time N/A
Altitude 37000
Route KEMAX N851 ROXEN DCT MIKNA N851 PELUP Z226 NILUG
Aircraft A20N/M-SDE3FGIJ1RWXY/ALB1

Departure

Time 2026-04-24 04:14
Airport Copenhagen Kastrup Airport (EKCH)

Arrival

Time N/A
Airport Stockholm-Arlanda Airport (ESSA)
Time Latitude Longitude Altitude Speed Heading
2026-04-24 03:40 55.62755 12.64470 26 ft 0 kts 100°
2026-04-24 04:00 55.62756 12.64457 26 ft 2 kts 100°
2026-04-24 04:01 55.62759 12.64430 26 ft 2 kts 100°
2026-04-24 04:01 55.62759 12.64404 26 ft 2 kts 69°
2026-04-24 04:01 55.62751 12.64382 26 ft 2 kts 39°
2026-04-24 04:01 55.62738 12.64370 26 ft 2 kts 22°
2026-04-24 04:02 55.62724 12.64358 26 ft 2 kts 27°
2026-04-24 04:02 55.62711 12.64347 26 ft 2 kts 26°
2026-04-24 04:02 55.62697 12.64337 26 ft 2 kts 21°
2026-04-24 04:02 55.62686 12.64329 26 ft 2 kts 23°
2026-04-24 04:03 55.62671 12.64319 26 ft 2 kts 22°
2026-04-24 04:03 55.62658 12.64309 26 ft 2 kts 22°
2026-04-24 04:03 55.62644 12.64299 26 ft 2 kts 22°
2026-04-24 04:03 55.62631 12.64288 26 ft 2 kts 33°
2026-04-24 04:04 55.62618 12.64273 26 ft 2 kts 32°
2026-04-24 04:04 55.62608 12.64262 26 ft 1 kts 33°
2026-04-24 04:04 55.62595 12.64247 26 ft 2 kts 34°
2026-04-24 04:04 55.62583 12.64232 26 ft 2 kts 33°
2026-04-24 04:05 55.62570 12.64217 26 ft 2 kts 34°
2026-04-24 04:05 55.62560 12.64206 26 ft 1 kts 34°
2026-04-24 04:05 55.62550 12.64189 26 ft 2 kts 62°
2026-04-24 04:05 55.62545 12.64164 26 ft 2 kts 88°
2026-04-24 04:06 55.62547 12.64139 26 ft 2 kts 115°
2026-04-24 04:06 55.62555 12.64117 26 ft 2 kts 125°
2026-04-24 04:06 55.62563 12.64095 26 ft 2 kts 122°
2026-04-24 04:06 55.62571 12.64072 26 ft 2 kts 123°
2026-04-24 04:07 55.62576 12.64060 26 ft 0 kts 122°
2026-04-24 04:08 55.62575 12.64061 26 ft 1 kts 122°
2026-04-24 04:09 55.62556 12.64116 26 ft 9 kts 123°
2026-04-24 04:09 55.62517 12.64222 26 ft 11 kts 123°
2026-04-24 04:09 55.62478 12.64325 26 ft 12 kts 126°
2026-04-24 04:09 55.62417 12.64440 26 ft 11 kts 151°
2026-04-24 04:10 55.62348 12.64432 25 ft 10 kts 198°
2026-04-24 04:10 55.62273 12.64391 25 ft 12 kts 197°
2026-04-24 04:10 55.62190 12.64342 25 ft 13 kts 201°
2026-04-24 04:11 55.62024 12.64197 26 ft 13 kts 206°
2026-04-24 04:11 55.61951 12.64137 25 ft 11 kts 205°
2026-04-24 04:11 55.61892 12.64087 24 ft 8 kts 207°
2026-04-24 04:11 55.61827 12.64073 24 ft 10 kts 176°
2026-04-24 04:12 55.61773 12.64079 24 ft 5 kts 177°
2026-04-24 04:12 55.61748 12.64082 24 ft 4 kts 177°
2026-04-24 04:12 55.61710 12.64086 24 ft 7 kts 176°
2026-04-24 04:12 55.61642 12.64085 23 ft 10 kts 201°
2026-04-24 04:13 55.61572 12.63987 23 ft 20 kts 221°
2026-04-24 04:13 55.61267 12.63513 20 ft 96 kts 221°
2026-04-24 04:13 55.60601 12.62489 30 ft 155 kts 221°
2026-04-24 04:13 55.59774 12.61168 597 ft 160 kts 225°
2026-04-24 04:14 55.58964 12.59871 1266 ft 163 kts 224°
2026-04-24 04:14 55.58052 12.58476 1698 ft 182 kts 223°
2026-04-24 04:14 55.57061 12.56966 2166 ft 199 kts 224°
2026-04-24 04:14 55.55891 12.55479 2652 ft 217 kts 210°
2026-04-24 04:15 55.54405 12.54396 3075 ft 242 kts 200°
2026-04-24 04:15 55.52765 12.53446 3638 ft 261 kts 198°
2026-04-24 04:15 55.50983 12.52450 4266 ft 277 kts 199°
2026-04-24 04:15 55.49184 12.51428 5104 ft 284 kts 199°
2026-04-24 04:16 55.47326 12.50353 6005 ft 289 kts 200°
2026-04-24 04:16 55.45342 12.49544 6871 ft 297 kts 180°
2026-04-24 04:16 55.43370 12.50410 7716 ft 299 kts 147°
2026-04-24 04:16 55.41891 12.52929 8572 ft 295 kts 116°
2026-04-24 04:17 55.41186 12.56253 9385 ft 294 kts 100°
2026-04-24 04:17 55.40665 12.59804 10173 ft 302 kts 98°
2026-04-24 04:17 55.40453 12.63494 10799 ft 306 kts 79°
2026-04-24 04:17 55.41002 12.67143 11262 ft 313 kts 59°
2026-04-24 04:18 55.42283 12.70250 11682 ft 321 kts 39°
2026-04-24 04:18 55.44172 12.72371 12253 ft 325 kts 18°
2026-04-24 04:18 55.46354 12.73372 13032 ft 326 kts
2026-04-24 04:18 55.48591 12.74219 13781 ft 331 kts 10°
2026-04-24 04:19 55.50855 12.75085 14509 ft 336 kts 10°
2026-04-24 04:19 55.53129 12.75967 15240 ft 340 kts 10°
2026-04-24 04:19 55.55442 12.76870 15944 ft 345 kts 10°
2026-04-24 04:19 55.57800 12.77798 16665 ft 349 kts 10°
2026-04-24 04:20 55.60241 12.78760 17371 ft 353 kts
2026-04-24 04:20 55.62644 12.79750 18035 ft 358 kts 12°
2026-04-24 04:20 55.64993 12.81283 18668 ft 365 kts 21°
2026-04-24 04:20 55.67238 12.83525 19326 ft 373 kts 30°
2026-04-24 04:21 55.69367 12.86266 19963 ft 378 kts 33°
2026-04-24 04:21 55.71468 12.89098 20590 ft 381 kts 33°
2026-04-24 04:21 55.72959 12.91124 21037 ft 383 kts 33°
2026-04-24 04:21 55.74219 12.92836 21462 ft 383 kts 33°
2026-04-24 04:22 55.77490 12.97275 22427 ft 386 kts 33°
2026-04-24 04:22 55.79652 13.00207 22984 ft 390 kts 33°
2026-04-24 04:22 55.81792 13.03109 23527 ft 393 kts 33°
2026-04-24 04:22 55.83968 13.06061 24090 ft 396 kts 33°
2026-04-24 04:23 55.86167 13.09047 24604 ft 399 kts 33°
2026-04-24 04:23 55.88375 13.12050 25100 ft 403 kts 33°
2026-04-24 04:23 55.90611 13.15098 25610 ft 406 kts 33°
2026-04-24 04:23 55.92838 13.18137 26058 ft 410 kts 33°
2026-04-24 04:24 55.95117 13.21250 26501 ft 414 kts 33°
2026-04-24 04:24 55.97424 13.24407 26960 ft 417 kts 33°
2026-04-24 04:24 55.99721 13.27555 27401 ft 421 kts 33°
2026-04-24 04:24 56.02040 13.30740 27821 ft 424 kts 33°
2026-04-24 04:25 56.04390 13.33970 28232 ft 428 kts 33°
2026-04-24 04:25 56.06765 13.37240 28623 ft 431 kts 33°
2026-04-24 04:25 56.09118 13.40484 29063 ft 433 kts 33°
2026-04-24 04:25 56.11514 13.43797 29617 ft 432 kts 33°
2026-04-24 04:26 56.13668 13.46747 30135 ft 430 kts 32°
2026-04-24 04:26 56.16119 13.49966 30681 ft 429 kts 31°
2026-04-24 04:26 56.18556 13.53129 31177 ft 429 kts 31°
2026-04-24 04:26 56.21043 13.56361 31676 ft 428 kts 30°
2026-04-24 04:27 56.23535 13.59615 32182 ft 427 kts 30°
2026-04-24 04:27 56.25983 13.62825 32686 ft 425 kts 30°
2026-04-24 04:27 56.28481 13.66109 33161 ft 424 kts 31°
2026-04-24 04:27 56.30889 13.69283 33611 ft 423 kts 31°
2026-04-24 04:28 56.33339 13.72516 34024 ft 422 kts 30°
2026-04-24 04:28 56.35770 13.75729 34435 ft 421 kts 30°
2026-04-24 04:28 56.38179 13.78922 34807 ft 420 kts 30°
2026-04-24 04:28 56.40519 13.82028 35129 ft 419 kts 30°
2026-04-24 04:29 56.42869 13.85151 35410 ft 419 kts 30°
2026-04-24 04:29 56.45189 13.88237 35652 ft 420 kts 30°
2026-04-24 04:29 56.47553 13.91391 35900 ft 421 kts 30°
2026-04-24 04:29 56.49896 13.94519 36116 ft 422 kts 30°
2026-04-24 04:30 56.52234 13.97651 36336 ft 422 kts 30°
2026-04-24 04:30 56.54604 14.00829 36554 ft 423 kts 30°
2026-04-24 04:30 56.56964 14.03996 36802 ft 424 kts 30°
2026-04-24 04:30 56.59315 14.07153 36997 ft 425 kts 30°
2026-04-24 04:31 56.64064 14.13549 37002 ft 425 kts 30°
2026-04-24 04:31 56.68794 14.19944 37001 ft 424 kts 30°
2026-04-24 04:32 56.73518 14.26350 36999 ft 425 kts 30°
2026-04-24 04:32 56.78257 14.32797 36999 ft 425 kts 30°
2026-04-24 04:33 56.82973 14.39232 36998 ft 425 kts 30°
2026-04-24 04:33 56.87720 14.45732 36995 ft 425 kts 30°
2026-04-24 04:34 56.92430 14.52204 36995 ft 425 kts 30°
2026-04-24 04:34 56.97169 14.58731 36991 ft 424 kts 30°
2026-04-24 04:35 57.01962 14.65358 36988 ft 425 kts 31°
2026-04-24 04:35 57.06774 14.72032 36990 ft 425 kts 31°
2026-04-24 04:36 57.11555 14.78687 36989 ft 424 kts 31°
2026-04-24 04:36 57.16366 14.85407 36980 ft 424 kts 31°
2026-04-24 04:37 57.21125 14.92074 36979 ft 424 kts 31°
2026-04-24 04:37 57.25924 14.98822 36982 ft 425 kts 31°
2026-04-24 04:38 57.30689 15.05545 36977 ft 425 kts 31°
2026-04-24 04:38 57.35457 15.12288 36977 ft 425 kts 31°
2026-04-24 04:39 57.40196 15.19022 36973 ft 424 kts 31°
2026-04-24 04:39 57.44967 15.25820 36977 ft 425 kts 31°
2026-04-24 04:40 57.49702 15.32588 36973 ft 423 kts 31°
2026-04-24 04:40 57.54439 15.39383 36972 ft 424 kts 31°
2026-04-24 04:41 57.59143 15.46154 36973 ft 425 kts 31°
2026-04-24 04:41 57.63876 15.52989 36972 ft 425 kts 31°
2026-04-24 04:42 57.68602 15.59839 36971 ft 425 kts 31°
2026-04-24 04:42 57.73286 15.66649 36969 ft 424 kts 32°
2026-04-24 04:43 57.77999 15.73521 36970 ft 425 kts 32°
2026-04-24 04:43 57.82695 15.80397 36967 ft 425 kts 32°
2026-04-24 04:44 57.87393 15.87302 36971 ft 426 kts 32°
2026-04-24 04:44 57.92039 15.94152 36965 ft 426 kts 32°
2026-04-24 04:45 57.96699 16.01040 36964 ft 426 kts 32°
2026-04-24 04:45 58.01351 16.07943 36965 ft 426 kts 32°
2026-04-24 04:46 58.05979 16.14831 36968 ft 426 kts 32°
2026-04-24 04:46 58.10610 16.21750 36958 ft 425 kts 32°
2026-04-24 04:47 58.12923 16.25215 36539 ft 429 kts 32°
2026-04-24 04:47 58.15300 16.28784 35756 ft 436 kts 32°
2026-04-24 04:47 58.17699 16.32390 35041 ft 439 kts 31°
2026-04-24 04:47 58.20117 16.36035 34361 ft 440 kts 31°
2026-04-24 04:48 58.22499 16.39628 33604 ft 441 kts 31°
2026-04-24 04:48 58.24880 16.43398 32807 ft 445 kts 34°
2026-04-24 04:48 58.27132 16.47427 31984 ft 451 kts 38°
2026-04-24 04:48 58.29314 16.51860 31116 ft 456 kts 42°
2026-04-24 04:49 58.31362 16.56606 30319 ft 460 kts 45°
2026-04-24 04:49 58.33306 16.61501 29501 ft 461 kts 47°
2026-04-24 04:49 58.35218 16.66415 28717 ft 461 kts 48°
2026-04-24 04:49 58.37112 16.71314 28068 ft 456 kts 48°
2026-04-24 04:50 58.39019 16.76257 27568 ft 449 kts 48°
2026-04-24 04:50 58.40863 16.81037 27075 ft 442 kts 48°
2026-04-24 04:50 58.42683 16.85748 26581 ft 436 kts 48°
2026-04-24 04:50 58.44496 16.90446 26080 ft 431 kts 48°
2026-04-24 04:51 58.46270 16.95045 25591 ft 426 kts 48°
2026-04-24 04:51 58.48025 16.99601 25105 ft 421 kts 48°
2026-04-24 04:51 58.49781 17.04167 24616 ft 417 kts 48°
2026-04-24 04:51 58.51529 17.08721 24130 ft 413 kts 48°
2026-04-24 04:52 58.53209 17.13109 23653 ft 410 kts 48°
2026-04-24 04:52 58.54939 17.17632 23151 ft 406 kts 48°
2026-04-24 04:52 58.56604 17.21999 22664 ft 403 kts 48°
2026-04-24 04:52 58.58287 17.26419 22178 ft 399 kts 48°
2026-04-24 04:53 58.59926 17.30734 21698 ft 396 kts 47°
2026-04-24 04:53 58.61550 17.35017 21217 ft 392 kts 47°
2026-04-24 04:53 58.63152 17.39243 20735 ft 389 kts 47°
2026-04-24 04:53 58.64773 17.43530 20246 ft 385 kts 47°
2026-04-24 04:54 58.66345 17.47694 19766 ft 382 kts 47°
2026-04-24 04:54 58.67927 17.51893 19282 ft 378 kts 47°
2026-04-24 04:54 58.69480 17.56023 18801 ft 375 kts 47°
2026-04-24 04:54 58.71003 17.60082 18324 ft 371 kts 47°
2026-04-24 04:55 58.72509 17.64094 17859 ft 368 kts 47°
2026-04-24 04:55 58.74008 17.68099 17384 ft 365 kts 48°
2026-04-24 04:55 58.75485 17.72054 16913 ft 362 kts 48°
2026-04-24 04:55 58.76971 17.76039 16434 ft 359 kts 48°
2026-04-24 04:56 58.78421 17.79934 15965 ft 356 kts 48°
2026-04-24 04:56 58.79863 17.83810 15495 ft 353 kts 48°
2026-04-24 04:56 58.81476 17.87367 15000 ft 343 kts 37°
2026-04-24 04:56 58.83376 17.90072 14759 ft 328 kts 25°
2026-04-24 04:57 58.85412 17.92128 14471 ft 326 kts 21°
2026-04-24 04:57 58.87460 17.94048 14045 ft 323 kts 21°
2026-04-24 04:57 58.89511 17.95956 13609 ft 321 kts 21°
2026-04-24 04:57 58.91552 17.97867 13164 ft 319 kts 21°
2026-04-24 04:58 58.93565 17.99762 12722 ft 316 kts 22°
2026-04-24 04:58 58.95522 18.01609 12274 ft 314 kts 22°
2026-04-24 04:58 58.97503 18.03486 11831 ft 312 kts 22°
2026-04-24 04:58 58.99418 18.05302 11398 ft 310 kts 22°
2026-04-24 04:59 59.01364 18.07152 10940 ft 308 kts 22°
2026-04-24 04:59 59.03271 18.08969 10524 ft 305 kts 22°
2026-04-24 04:59 59.05122 18.10740 10358 ft 292 kts 22°
2026-04-24 04:59 59.06900 18.12444 10224 ft 279 kts 22°
2026-04-24 05:00 59.08631 18.13985 10077 ft 265 kts 13°
2026-04-24 05:00 59.10395 18.14237 9904 ft 252 kts 350°
2026-04-24 05:00 59.12056 18.13100 9477 ft 254 kts 335°
2026-04-24 05:00 59.13621 18.11613 9096 ft 254 kts 335°
2026-04-24 05:01 59.15208 18.10118 8731 ft 253 kts 336°
2026-04-24 05:01 59.16803 18.08618 8372 ft 252 kts 336°
2026-04-24 05:01 59.18378 18.07137 8019 ft 251 kts 336°
2026-04-24 05:01 59.19931 18.05679 7676 ft 250 kts 336°
2026-04-24 05:02 59.21491 18.04214 7333 ft 249 kts 336°
2026-04-24 05:02 59.22975 18.02819 7012 ft 247 kts 336°
2026-04-24 05:02 59.24445 18.01437 6693 ft 246 kts 336°
2026-04-24 05:03 59.27057 17.98976 6135 ft 243 kts 336°
2026-04-24 05:03 59.28450 17.97663 5840 ft 242 kts 336°